Time,TemperatureF,DewpointF,PressureIn,WindDirection,WindDirectionDegrees,WindSpeedMPH,WindSpeedGustMPH,Humidity,HourlyPrecipIn,Conditions,Clouds,dailyrainin,SoftwareType,DateUTC
2013-02-23 00:14:00,35.8,32.0,30.03,South,183,6.0,-999.0,85,-99.99,,,0.00,weatherlink.com 1.10,2013-02-23 05:14:00,
2013-02-23 00:29:00,35.7,32.0,30.02,SSE,167,1.0,-999.0,85,-99.99,,,0.00,weatherlink.com 1.10,2013-02-23 05:29:00,
2013-02-23 00:44:00,35.6,32.0,30.02,SSE,166,4.0,-999.0,85,-99.99,,,0.00,weatherlink.com 1.10,2013-02-23 05:44:00,
2013-02-23 00:59:00,35.6,32.0,30.03,SSE,153,8.0,-999.0,86,-99.99,,,0.00,weatherlink.com 1.10,2013-02-23 05:59:00,
2013-02-23 01:14:00,35.7,32.0,30.02,SE,139,4.0,-999.0,86,-99.99,,,0.00,weatherlink.com 1.10,2013-02-23 06:14:00,
2013-02-23 01:29:00,36.0,32.0,30.02,SSE,166,0.0,-999.0,86,-99.99,,,0.00,weatherlink.com 1.10,2013-02-23 06:29:00,
2013-02-23 01:44:00,36.4,33.0,30.02,SSW,192,2.0,-999.0,86,-99.99,,,0.00,weatherlink.com 1.10,2013-02-23 06:44:00,
2013-02-23 01:59:00,36.7,33.0,30.02,SSE,148,4.0,-999.0,85,-99.99,,,0.00,weatherlink.com 1.10,2013-02-23 06:59:00,
2013-02-23 02:14:00,36.8,33.0,30.01,South,190,5.0,-999.0,85,-99.99,,,0.00,weatherlink.com 1.10,2013-02-23 07:14:00,
2013-02-23 02:29:00,36.9,33.0,30.01,South,185,2.0,-999.0,84,-99.99,,,0.00,weatherlink.com 1.10,2013-02-23 07:29:00,
2013-02-23 02:44:00,36.9,33.0,30.01,SSW,209,1.0,-999.0,84,-99.99,,,0.00,weatherlink.com 1.10,2013-02-23 07:44:00,
2013-02-23 02:59:00,36.9,33.0,30.01,SSE,159,5.0,-999.0,84,-99.99,,,0.00,weatherlink.com 1.10,2013-02-23 07:59:00,
2013-02-23 03:14:00,36.8,32.0,30.00,SSE,161,2.0,-999.0,84,-99.99,,,0.00,weatherlink.com 1.10,2013-02-23 08:14:00,
2013-02-23 03:29:00,36.7,32.0,30.00,South,180,0.0,-999.0,84,-99.99,,,0.00,weatherlink.com 1.10,2013-02-23 08:29:00,
2013-02-23 03:44:00,36.6,32.0,30.00,SSE,167,5.0,-999.0,84,-99.99,,,0.00,weatherlink.com 1.10,2013-02-23 08:44:00,
2013-02-23 03:59:00,36.4,32.0,30.00,SSW,192,0.0,-999.0,85,-99.99,,,0.00,weatherlink.com 1.10,2013-02-23 08:59:00,
2013-02-23 04:14:00,36.1,32.0,30.00,SE,145,0.0,-999.0,85,-99.99,,,0.00,weatherlink.com 1.10,2013-02-23 09:14:00,
2013-02-23 04:29:00,36.0,32.0,30.00,SSE,159,2.0,-999.0,86,-99.99,,,0.00,weatherlink.com 1.10,2013-02-23 09:29:00,
2013-02-23 04:44:00,35.7,32.0,29.99,South,170,0.0,-999.0,86,-99.99,,,0.00,weatherlink.com 1.10,2013-02-23 09:44:00,
2013-02-23 04:59:00,35.5,32.0,30.00,SSE,167,5.0,-999.0,86,-99.99,,,0.01,weatherlink.com 1.10,2013-02-23 09:59:00,
2013-02-23 05:14:00,35.3,32.0,29.99,SE,144,2.0,-999.0,87,-99.99,,,0.01,weatherlink.com 1.10,2013-02-23 10:14:00,
2013-02-23 05:29:00,35.2,32.0,29.99,SSE,151,0.0,-999.0,87,-99.99,,,0.01,weatherlink.com 1.10,2013-02-23 10:29:00,
2013-02-23 05:44:00,35.1,31.0,29.99,SSE,151,0.0,-999.0,86,-99.99,,,0.01,weatherlink.com 1.10,2013-02-23 10:44:00,
2013-02-23 05:59:00,34.8,31.0,29.99,SSE,151,4.0,-999.0,87,-99.99,,,0.01,weatherlink.com 1.10,2013-02-23 10:59:00,
2013-02-23 06:14:00,34.7,31.0,29.99,SSE,151,4.0,-999.0,87,-99.99,,,0.01,weatherlink.com 1.10,2013-02-23 11:14:00,
2013-02-23 06:44:00,35.0,32.0,30.00,South,186,5.0,-999.0,87,-99.99,,,0.01,weatherlink.com 1.10,2013-02-23 11:44:00,
2013-02-23 06:59:00,35.5,32.0,30.00,South,175,0.0,-999.0,86,-99.99,,,0.01,weatherlink.com 1.10,2013-02-23 11:59:00,
2013-02-23 07:14:00,35.6,32.0,30.00,South,185,3.0,-999.0,86,-99.99,,,0.01,weatherlink.com 1.10,2013-02-23 12:14:00,
2013-02-23 07:29:00,35.5,32.0,30.00,South,180,2.0,-999.0,87,-99.99,,,0.01,weatherlink.com 1.10,2013-02-23 12:29:00,
2013-02-23 07:44:00,35.5,32.0,30.00,SSE,165,0.0,-999.0,87,-99.99,,,0.01,weatherlink.com 1.10,2013-02-23 12:44:00,
2013-02-23 07:59:00,35.6,32.0,29.99,SSE,163,7.0,-999.0,87,-99.99,,,0.01,weatherlink.com 1.10,2013-02-23 12:59:00,
2013-02-23 08:14:00,35.7,32.0,29.99,SSE,167,6.0,-999.0,87,-99.99,,,0.01,weatherlink.com 1.10,2013-02-23 13:14:00,
2013-02-23 08:29:00,35.9,32.0,30.00,South,173,7.0,-999.0,86,-99.99,,,0.01,weatherlink.com 1.10,2013-02-23 13:29:00,
2013-02-23 08:44:00,36.0,32.0,29.99,SSW,205,4.0,-999.0,86,-99.99,,,0.01,weatherlink.com 1.10,2013-02-23 13:44:00,
2013-02-23 08:59:00,36.2,32.0,29.98,SSE,160,8.0,-999.0,86,-99.99,,,0.01,weatherlink.com 1.10,2013-02-23 13:59:00,
2013-02-23 09:15:00,36.6,33.0,29.98,SSW,207,1.0,-999.0,85,-99.99,,,0.01,weatherlink.com 1.10,2013-02-23 14:15:00,
2013-02-23 09:30:00,36.8,33.0,29.98,South,183,0.0,-999.0,85,-99.99,,,0.01,weatherlink.com 1.10,2013-02-23 14:30:00,
2013-02-23 09:45:00,36.8,33.0,29.98,SSW,194,5.0,-999.0,85,-99.99,,,0.01,weatherlink.com 1.10,2013-02-23 14:45:00,
2013-02-23 10:00:00,36.8,32.0,29.97,South,188,0.0,-999.0,84,-99.99,,,0.01,weatherlink.com 1.10,2013-02-23 15:00:00,
2013-02-23 10:15:00,36.9,33.0,29.97,SSW,193,5.0,-999.0,84,-99.99,,,0.01,weatherlink.com 1.10,2013-02-23 15:15:00,
2013-02-23 10:30:00,37.0,33.0,29.97,SSW,211,3.0,-999.0,84,-99.99,,,0.01,weatherlink.com 1.10,2013-02-23 15:30:00,
2013-02-23 10:45:00,37.4,33.0,29.97,South,180,3.0,-999.0,84,-99.99,,,0.01,weatherlink.com 1.10,2013-02-23 15:45:00,
2013-02-23 11:00:00,37.7,33.0,29.96,SSE,161,9.0,-999.0,84,-99.99,,,0.01,weatherlink.com 1.10,2013-02-23 16:00:00,
2013-02-23 11:15:00,38.0,33.0,29.96,South,172,5.0,-999.0,83,-99.99,,,0.01,weatherlink.com 1.10,2013-02-23 16:15:00,
2013-02-23 11:30:00,38.4,33.0,29.96,SW,221,3.0,-999.0,81,-99.99,,,0.01,weatherlink.com 1.10,2013-02-23 16:30:00,
2013-02-23 11:45:00,38.6,33.0,29.96,SSW,209,4.0,-999.0,80,-99.99,,,0.01,weatherlink.com 1.10,2013-02-23 16:45:00,
2013-02-23 12:00:00,38.5,33.0,29.95,SSW,202,5.0,-999.0,80,-99.99,,,0.01,weatherlink.com 1.10,2013-02-23 17:00:00,
2013-02-23 12:15:00,38.6,33.0,29.95,West,273,7.0,-999.0,80,-99.99,,,0.01,weatherlink.com 1.10,2013-02-23 17:15:00,
2013-02-23 12:30:00,38.6,33.0,29.95,WSW,243,5.0,-999.0,80,-99.99,,,0.01,weatherlink.com 1.10,2013-02-23 17:30:00,
2013-02-23 12:45:00,38.5,32.0,29.95,SW,223,10.0,-999.0,78,-99.99,,,0.01,weatherlink.com 1.10,2013-02-23 17:45:00,
2013-02-23 13:00:00,38.4,32.0,29.94,SW,232,9.0,-999.0,78,-99.99,,,0.01,weatherlink.com 1.10,2013-02-23 18:00:00,
2013-02-23 13:15:00,38.2,32.0,29.93,SW,223,3.0,-999.0,78,-99.99,,,0.01,weatherlink.com 1.10,2013-02-23 18:15:00,
2013-02-23 13:30:00,38.0,32.0,29.93,WSW,250,11.0,-999.0,78,-99.99,,,0.01,weatherlink.com 1.10,2013-02-23 18:30:00,
2013-02-23 13:45:00,37.6,31.0,29.93,WSW,255,11.0,-999.0,78,-99.99,,,0.01,weatherlink.com 1.10,2013-02-23 18:45:00,
2013-02-23 14:00:00,37.5,31.0,29.93,SSW,209,9.0,-999.0,78,-99.99,,,0.01,weatherlink.com 1.10,2013-02-23 19:00:00,
2013-02-23 14:15:00,37.4,31.0,29.93,West,260,8.0,-999.0,77,-99.99,,,0.01,weatherlink.com 1.10,2013-02-23 19:15:00,
2013-02-23 14:30:00,37.4,31.0,29.92,South,191,11.0,-999.0,77,-99.99,,,0.01,weatherlink.com 1.10,2013-02-23 19:30:00,
2013-02-23 14:45:00,37.2,30.0,29.93,WSW,250,6.0,-999.0,76,-99.99,,,0.01,weatherlink.com 1.10,2013-02-23 19:45:00,
2013-02-23 15:00:00,36.9,31.0,29.93,WSW,241,8.0,-999.0,78,-99.99,,,0.01,weatherlink.com 1.10,2013-02-23 20:00:00,
2013-02-23 15:15:00,36.6,30.0,29.93,West,263,8.0,-999.0,77,-99.99,,,0.01,weatherlink.com 1.10,2013-02-23 20:15:00,
2013-02-23 15:30:00,36.4,30.0,29.93,SW,224,3.0,-999.0,76,-99.99,,,0.01,weatherlink.com 1.10,2013-02-23 20:30:00,
2013-02-23 15:45:00,36.2,29.0,29.93,SW,228,4.0,-999.0,74,-99.99,,,0.01,weatherlink.com 1.10,2013-02-23 20:45:00,
2013-02-23 16:00:00,36.1,28.0,29.93,WSW,247,4.0,-999.0,72,-99.99,,,0.01,weatherlink.com 1.10,2013-02-23 21:00:00,
2013-02-23 16:15:00,35.9,28.0,29.94,South,188,1.0,-999.0,72,-99.99,,,0.01,weatherlink.com 1.10,2013-02-23 21:15:00,
2013-02-23 16:30:00,35.7,27.0,29.94,SSW,196,3.0,-999.0,72,-99.99,,,0.01,weatherlink.com 1.10,2013-02-23 21:30:00,
2013-02-23 16:45:00,35.5,27.0,29.94,SW,224,6.0,-999.0,71,-99.99,,,0.01,weatherlink.com 1.10,2013-02-23 21:45:00,
2013-02-23 17:00:00,35.3,27.0,29.94,West,259,10.0,-999.0,72,-99.99,,,0.01,weatherlink.com 1.10,2013-02-23 22:00:00,
2013-02-23 17:15:00,34.8,26.0,29.93,WSW,243,7.0,-999.0,71,-99.99,,,0.01,weatherlink.com 1.10,2013-02-23 22:15:00,
2013-02-23 17:30:00,34.5,26.0,29.94,SW,233,1.0,-999.0,72,-99.99,,,0.01,weatherlink.com 1.10,2013-02-23 22:30:00,
2013-02-23 17:45:00,34.2,26.0,29.94,WSW,250,4.0,-999.0,72,-99.99,,,0.01,weatherlink.com 1.10,2013-02-23 22:45:00,
2013-02-23 18:00:00,33.8,26.0,29.94,WNW,286,2.0,-999.0,74,-99.99,,,0.01,weatherlink.com 1.10,2013-02-23 23:00:00,
2013-02-23 18:15:00,33.4,26.0,29.94,SW,219,5.0,-999.0,75,-99.99,,,0.01,weatherlink.com 1.10,2013-02-23 23:15:00,
2013-02-23 18:30:00,33.2,27.0,29.95,WSW,243,2.0,-999.0,77,-99.99,,,0.01,weatherlink.com 1.10,2013-02-23 23:30:00,
2013-02-23 18:45:00,32.9,26.0,29.96,South,186,1.0,-999.0,77,-99.99,,,0.01,weatherlink.com 1.10,2013-02-23 23:45:00,
2013-02-23 19:00:00,32.3,26.0,29.96,SSW,204,3.0,-999.0,78,-99.99,,,0.01,weatherlink.com 1.10,2013-02-24 00:00:00,
2013-02-23 19:16:00,32.0,26.0,29.96,SSW,209,3.0,-999.0,79,-99.99,,,0.01,weatherlink.com 1.10,2013-02-24 00:16:00,
2013-02-23 19:31:00,31.5,26.0,29.97,SSW,212,5.0,-999.0,80,-99.99,,,0.01,weatherlink.com 1.10,2013-02-24 00:31:00,
2013-02-23 19:46:00,31.3,26.0,29.97,SSW,206,3.0,-999.0,81,-99.99,,,0.01,weatherlink.com 1.10,2013-02-24 00:46:00,
2013-02-23 20:01:00,31.1,26.0,29.97,West,259,0.0,-999.0,82,-99.99,,,0.01,weatherlink.com 1.10,2013-02-24 01:01:00,
2013-02-23 20:16:00,31.0,26.0,29.97,West,271,5.0,-999.0,82,-99.99,,,0.01,weatherlink.com 1.10,2013-02-24 01:16:00,
2013-02-23 20:31:00,30.9,26.0,29.97,SSW,212,0.0,-999.0,82,-99.99,,,0.01,weatherlink.com 1.10,2013-02-24 01:31:00,
2013-02-23 20:46:00,30.8,26.0,29.97,SW,231,6.0,-999.0,82,-99.99,,,0.01,weatherlink.com 1.10,2013-02-24 01:46:00,
2013-02-23 21:01:00,30.7,26.0,29.97,WSW,249,4.0,-999.0,82,-99.99,,,0.01,weatherlink.com 1.10,2013-02-24 02:01:00,
2013-02-23 21:16:00,30.6,26.0,29.96,WSW,254,1.0,-999.0,82,-99.99,,,0.01,weatherlink.com 1.10,2013-02-24 02:16:00,
2013-02-23 21:31:00,30.2,26.0,29.96,SW,219,4.0,-999.0,83,-99.99,,,0.01,weatherlink.com 1.10,2013-02-24 02:31:00,
2013-02-23 21:46:00,30.1,26.0,29.96,SW,220,0.0,-999.0,83,-99.99,,,0.01,weatherlink.com 1.10,2013-02-24 02:46:00,
2013-02-23 22:01:00,30.0,25.0,29.96,SW,231,0.0,-999.0,83,-99.99,,,0.01,weatherlink.com 1.10,2013-02-24 03:01:00,
2013-02-23 22:16:00,29.7,25.0,29.95,SSW,211,2.0,-999.0,83,-99.99,,,0.01,weatherlink.com 1.10,2013-02-24 03:16:00,
2013-02-23 22:31:00,29.4,25.0,29.95,South,180,0.0,-999.0,84,-99.99,,,0.01,weatherlink.com 1.10,2013-02-24 03:31:00,
2013-02-23 22:46:00,29.2,25.0,29.95,South,190,0.0,-999.0,84,-99.99,,,0.01,weatherlink.com 1.10,2013-02-24 03:46:00,
2013-02-23 23:01:00,29.3,25.0,29.94,South,187,2.0,-999.0,84,-99.99,,,0.01,weatherlink.com 1.10,2013-02-24 04:01:00,
2013-02-23 23:16:00,29.5,25.0,29.94,South,184,2.0,-999.0,84,-99.99,,,0.01,weatherlink.com 1.10,2013-02-24 04:16:00,
2013-02-23 23:31:00,29.3,25.0,29.94,SSW,202,1.0,-999.0,84,-99.99,,,0.01,weatherlink.com 1.10,2013-02-24 04:31:00,
2013-02-23 23:46:00,29.2,25.0,29.94,SW,221,2.0,-999.0,84,-99.99,,,0.01,weatherlink.com 1.10,2013-02-24 04:46:00,